Location: Doschendorf
(50.0069°N, 11.0602°E)
Time: 13:02:11
(UTC+00:00)

IRS-1C Rocket - Visible Passes

Search period start: 18 February 2020 00:00
Search period end: 28 February 2020 00:00
Orbit: 801 x 805 km, 99.0° (Epoch: 17 February)

Date Brightness Start Highest point End Pass type
(mag) Time Alt. Az. Time Alt. Az. Time Alt. Az.
18 Feb 7.0 04:38:46 10° NE 04:42:32 19° E 04:46:17 10° SE visible
18 Feb 6.4 17:42:54 10° SSW 17:47:24 28° W 17:51:56 10° NW visible
19 Feb 7.6 04:14:34 10° ENE 04:16:26 12° E 04:18:18 10° ESE visible
19 Feb 5.5 17:16:28 10° S 17:21:30 45° W 17:26:34 10° NNW visible
20 Feb 5.4 05:26:10 10° NNE 05:31:16 46° E 05:36:19 10° S visible
20 Feb 7.6 18:34:37 10° WSW 18:36:20 11° W 18:38:04 10° WNW visible
21 Feb 6.4 05:00:47 10° NE 05:05:22 29° E 05:09:54 10° SSE visible
21 Feb 7.1 18:06:32 10° SW 18:10:14 19° W 18:13:57 10° NW visible
22 Feb 7.1 04:35:46 10° NE 04:39:21 18° E 04:42:56 10° SE visible
22 Feb 6.3 17:39:37 10° SSW 17:44:14 30° W 17:48:52 10° NNW visible
23 Feb 7.7 04:11:57 10° ENE 04:13:14 11° E 04:14:31 10° E visible
23 Feb 5.3 17:13:16 10° S 17:18:21 48° W 17:23:28 10° NNW visible
24 Feb 5.6 05:23:03 10° NNE 05:28:07 43° E 05:33:07 10° S visible
24 Feb 7.5 18:30:57 10° WSW 18:33:08 12° W 18:35:19 10° WNW visible
25 Feb 6.5 04:57:43 10° NE 05:02:11 27° E 05:06:37 10° SSE visible
25 Feb 7.0 18:03:10 10° SW 18:07:03 20° W 18:10:56 10° NW visible
26 Feb 7.3 04:32:47 10° NE 04:36:09 17° E 04:39:32 10° SE visible
26 Feb 6.2 17:36:22 10° SSW 17:41:04 32° W 17:45:48 10° NNW visible
